Selinsgrove, PA

2:06 AM EST on December 16, 2019 (GMT -0500)
Penn Valley

Weather History for KSEG - October, 2019

Change the Weather History Date:

Thursday, October 31, 2019

  Actual Average (KIPT) Record (KIPT)
Temperature  
Mean Temperature 64 °F -  
Max Temperature 72 °F 54 °F 78 °F (1933)
Min Temperature 51 °F 35 °F 21 °F (1988)
Degree Days  
Heating Degree Days 2    
Growing Degree Days 14 (Base 50)    
Moisture  
Dew Point 61 °F    
Average Humidity 90    
Maximum Humidity 97    
Minimum Humidity 68    
Precipitation  
Precipitation 1.21 in - - ()
Sea Level Pressure  
Sea Level Pressure 29.71 in    
Wind  
Wind Speed 6 mph (South)    
Max Wind Speed 20 mph    
Max Gust Speed 30 mph    
Visibility 7 miles    
Events Rain    
Averages and records for this station are not official NWS values.
T = Trace of Precipitation, MM = Missing Value Source: NWS Daily Summary

Daily Weather History Graph

Daily Weather History Graph

Search for Another Location

Airport or City:

Astronomy

Oct. 31, 2019 Rise Set
Actual Time 7:36 AM EDT 6:05 PM EDT
Civil Twilight 7:08 AM EDT 6:33 PM EDT
Nautical Twilight 6:35 AM EDT 7:05 PM EDT
Astronomical Twilight 6:03 AM EDT 7:37 PM EDT
Moon 11:23 AM EDT (10/31) 8:58 PM EDT (10/31)
Length of Visible Light 11h 25m
Length of Day
10h 28m
Waxing Crescent, 15% of the Moon is Illuminated
Oct 31
Waxing Crescent
Nov 4
First Quarter
Nov 12
Full
Nov 19
Last Quarter
Nov 26
New

Hourly Weather History & Observations

Time (EDT) Temp. Dew Point Humidity Pressure Visibility Wind Dir Wind Speed Gust Speed Precip Events Conditions
12:11 AM 57.9 °F 57.0 °F 97% 30.02 in 4.0 mi South 5.8 mph - 0.03 in Rain Light Rain
12:24 AM 57.9 °F 57.0 °F 97% 30.01 in 6.0 mi South 3.5 mph - 0.04 in Rain Light Rain
12:34 AM 57.9 °F 57.0 °F 97% 30.01 in 7.0 mi Variable 3.5 mph - 0.04 in Rain Light Rain
12:53 AM 57.9 °F 57.0 °F 97% 30.00 in 10.0 mi South 8.1 mph - 0.04 in   Overcast
1:53 AM 59.0 °F 57.0 °F 93% 29.98 in 9.0 mi SSW 6.9 mph - 0.03 in Rain Light Rain
2:53 AM 59.0 °F 57.0 °F 93% 29.96 in 10.0 mi Calm Calm - 0.01 in   Overcast
3:53 AM 60.1 °F 57.9 °F 93% 29.92 in 10.0 mi South 4.6 mph - 0.01 in   Overcast
4:53 AM 60.1 °F 57.9 °F 93% 29.90 in 10.0 mi SSE 6.9 mph - 0.01 in   Overcast
5:53 AM 60.1 °F 57.9 °F 93% 29.88 in 10.0 mi Calm Calm - N/A   Overcast
6:31 AM 61.0 °F 59.0 °F 93% 29.87 in 10.0 mi Calm Calm - N/A   Overcast
6:53 AM 61.0 °F 59.0 °F 93% 29.86 in 9.0 mi South 3.5 mph - N/A   Overcast
7:53 AM 62.1 °F 60.1 °F 93% 29.86 in 10.0 mi SSW 5.8 mph - N/A   Overcast
8:53 AM 63.0 °F 61.0 °F 93% 29.85 in 10.0 mi South 6.9 mph - N/A   Overcast
9:53 AM 64.0 °F 61.0 °F 90% 29.84 in 10.0 mi Variable 4.6 mph - N/A   Overcast
10:53 AM 64.9 °F 63.0 °F 93% 29.80 in 10.0 mi Variable 3.5 mph - N/A   Overcast
11:53 AM 66.9 °F 64.0 °F 90% 29.74 in 10.0 mi South 8.1 mph - N/A   Overcast
12:53 PM 66.9 °F 66.0 °F 97% 29.71 in 5.0 mi South 8.1 mph - 0.00 in   Overcast
1:25 PM 68.0 °F 66.0 °F 93% 29.68 in 6.0 mi South 6.9 mph - 0.00 in   Overcast
1:53 PM 68.0 °F 66.0 °F 93% 29.65 in 4.0 mi South 10.4 mph - 0.03 in Rain Light Rain
2:53 PM 70.0 °F 66.9 °F 90% 29.60 in 6.0 mi South 10.4 mph 23.0 mph 0.04 in Rain Light Rain
3:53 PM 72.0 °F 66.9 °F 84% 29.57 in 10.0 mi South 10.4 mph 19.6 mph 0.02 in   Overcast
4:53 PM 72.0 °F 66.9 °F 84% 29.54 in 10.0 mi South 12.7 mph 24.2 mph 0.00 in   Overcast
5:53 PM 71.1 °F 68.0 °F 90% 29.51 in 6.0 mi South 12.7 mph 19.6 mph 0.05 in Rain Rain
7:14 PM 71.1 °F 68.0 °F 90% 29.45 in 8.0 mi South 16.1 mph 24.2 mph 0.01 in Rain Light Rain
7:37 PM 71.1 °F 68.0 °F 90% 29.46 in 1.5 mi Variable 6.9 mph - 0.16 in Rain Heavy Rain
7:41 PM 70.0 °F 68.0 °F 93% 29.45 in 0.8 mi South 19.6 mph 28.8 mph 0.42 in Rain Heavy Rain
7:51 PM 71.6 °F 69.8 °F 94% 29.45 in 1.5 mi SSW 8.1 mph 21.9 mph 0.56 in Rain Rain
7:53 PM 71.1 °F 69.1 °F 93% 29.45 in 3.0 mi Variable 5.8 mph 21.9 mph 0.57 in Rain Light Rain
8:23 PM 69.1 °F 66.9 °F 93% 29.45 in 5.0 mi South 11.5 mph 20.7 mph 0.11 in Rain Rain
8:51 PM 68.0 °F 64.4 °F 88% 29.46 in 5.0 mi SSW 12.7 mph 21.9 mph 0.24 in Rain Rain
8:53 PM 68.0 °F 64.9 °F 90% 29.45 in 5.0 mi SSW 8.1 mph 21.9 mph 0.24 in Rain Rain
9:31 PM 64.0 °F 54.0 °F 70% 29.51 in 10.0 mi Variable 6.9 mph 29.9 mph 0.06 in Rain Light Rain
9:53 PM 61.0 °F 53.1 °F 75% 29.52 in 8.0 mi West 9.2 mph 20.7 mph 0.10 in Rain Light Rain
10:53 PM 55.0 °F 48.9 °F 80% 29.63 in 6.0 mi Variable 5.8 mph 28.8 mph 0.02 in Rain Light Rain
11:53 PM 51.1 °F 41.0 °F 68% 29.70 in 10.0 mi North - - 0.04 in Rain Light Rain